Location: Newark
(41.9000°N, 12.4833°E)
Time: 12:49:07
(UTC+00:00)

PRISM - Visible Passes

Search period start: 24 May 2019 00:00
Search period end: 03 June 2019 00:00
Orbit: 568 x 587 km, 98.1° (Epoch: 23 May)

Date Brightness Start Highest point End Pass type
(mag) Time Alt. Az. Time Alt. Az. Time Alt. Az.
24 May ? 00:16:49 10° N 00:20:17 38° NW 00:20:17 38° NW visible
24 May ? 22:46:31 10° NE 22:48:11 16° ENE 22:48:11 16° ENE visible
25 May ? 00:20:59 10° N 00:24:28 35° WNW 00:24:28 35° WNW visible
25 May ? 22:50:27 10° NE 22:52:22 18° ENE 22:52:22 18° ENE visible
26 May ? 00:25:08 10° N 00:28:38 32° WNW 00:28:38 32° WNW visible
26 May ? 22:54:24 10° NE 22:56:32 20° ENE 22:56:32 20° ENE visible
27 May ? 00:29:18 10° N 00:32:49 30° WNW 00:32:49 30° WNW visible
27 May ? 22:58:22 10° NE 23:00:42 22° ENE 23:00:42 22° ENE visible
28 May ? 00:33:27 10° N 00:36:58 27° WNW 00:36:59 27° WNW visible
28 May ? 23:02:21 10° NE 23:04:52 24° ENE 23:04:52 24° ENE visible
29 May ? 00:37:37 10° NNW 00:41:01 25° WNW 00:41:09 25° WNW visible
29 May ? 23:06:21 10° NE 23:09:02 27° ENE 23:09:02 27° ENE visible
30 May ? 00:41:48 10° NNW 00:45:04 23° WNW 00:45:18 23° WNW visible
30 May ? 23:10:21 10° NNE 23:13:11 29° ENE 23:13:11 29° ENE visible
31 May ? 00:46:00 10° NNW 00:49:06 21° WNW 00:49:28 21° WNW visible
31 May ? 23:14:22 10° NNE 23:17:20 32° ENE 23:17:20 32° ENE visible
01 Jun ? 00:50:12 10° NNW 00:53:08 19° WNW 00:53:37 19° WNW visible
01 Jun ? 23:18:22 10° NNE 23:21:29 36° ENE 23:21:29 36° ENE visible
02 Jun ? 00:54:26 10° NNW 00:57:10 17° WNW 00:57:46 17° WNW visible
02 Jun ? 23:22:23 10° NNE 23:25:38 40° ENE 23:25:38 40° ENE visible
